When you browse on this site, cookies collect data to enhance your experience and personalize the content and advertising you see.
Visit our Privacy Policy to learn more. By continuing to use the site, you agree to this use of cookies and data.

Hourly Weather Narino

Today, 8 August, Saturday

Time Temperature Precipitation Wind Pressure Humidity
00:00 +29°C° 0 mm 1 mps 740 mmHg 53%
01:00 +28°C° 0 mm 1 mps 739 mmHg 54%
02:00 +28°C° 0 mm 1 mps 739 mmHg 55%
03:00 +28°C° 0 mm 1 mps 739 mmHg 55%
04:00 +27°C° 0 mm 1 mps 739 mmHg 56%
05:00 +28°C° 0 mm 1 mps 739 mmHg 57%
06:00 +28°C° 0 mm 1 mps 739 mmHg 57%
07:00 +29°C° 0 mm 1 mps 739 mmHg 57%
08:00 +30°C° 0 mm 2 mps 740 mmHg 53%
09:00 +33°C° 0 mm 4 mps 740 mmHg 49%
10:00 +35°C° 0 mm 5 mps 740 mmHg 45%
11:00 +36°C° 0 mm 5 mps 739 mmHg 43%
12:00 +36°C° 0 mm 6 mps 738 mmHg 41%
13:00 +38°C° 0 mm 6 mps 738 mmHg 39%
14:00 +38°C° 0 mm 6 mps 737 mmHg 38%
15:00 +37°C° 0 mm 5 mps 737 mmHg 38%
16:00 +39°C° 0 mm 5 mps 736 mmHg 37%
17:00 +36°C° 0 mm 4 mps 736 mmHg 41%
18:00 +35°C° 0 mm 4 mps 737 mmHg 44%
19:00 +33°C° 0 mm 3 mps 737 mmHg 47%
20:00 +31°C° 0 mm 3 mps 738 mmHg 49%
21:00 +30°C° 0 mm 3 mps 739 mmHg 51%
22:00 +30°C° 0 mm 2 mps 740 mmHg 53%
23:00 +29°C° 0 mm 2 mps 740 mmHg 55%

Tomorrow, 9 August, Sunday

Time Temperature Precipitation Wind Pressure Humidity
00:00 +28°C° 0 mm 2 mps 739 mmHg 57%
01:00 +27°C° 0 mm 2 mps 739 mmHg 60%
02:00 +27°C° 0 mm 1 mps 739 mmHg 61%
03:00 +26°C° 0 mm 1 mps 738 mmHg 62%
04:00 +26°C° 0 mm 1 mps 738 mmHg 63%
05:00 +26°C° 0 mm 1 mps 738 mmHg 63%
06:00 +27°C° 0 mm 1 mps 739 mmHg 62%
07:00 +27°C° 0 mm 1 mps 739 mmHg 62%
08:00 +29°C° 0 mm 2 mps 739 mmHg 56%
09:00 +31°C° 0 mm 3 mps 739 mmHg 50%
10:00 +34°C° 0 mm 3 mps 740 mmHg 44%
11:00 +35°C° 0 mm 4 mps 739 mmHg 41%
12:00 +37°C° 0 mm 4 mps 738 mmHg 38%
13:00 +38°C° 0 mm 4 mps 738 mmHg 35%
14:00 +38°C° 0 mm 4 mps 737 mmHg 34%
15:00 +40°C° 0 mm 4 mps 736 mmHg 33%
16:00 +40°C° 0 mm 4 mps 735 mmHg 32%
17:00 +37°C° 0 mm 3 mps 736 mmHg 37%
18:00 +35°C° 0 mm 3 mps 737 mmHg 41%
19:00 +34°C° 0 mm 3 mps 737 mmHg 45%
20:00 +33°C° 0 mm 3 mps 738 mmHg 46%
21:00 +31°C° 0 mm 2 mps 739 mmHg 47%
22:00 +31°C° 0 mm 2 mps 739 mmHg 48%
23:00 +30°C° 0 mm 2 mps 739 mmHg 50%

Day after tomorrow, 10 August, Monday

Time Temperature Precipitation Wind Pressure Humidity
00:00 +29°C° 0 mm 1 mps 738 mmHg 53%
01:00 +28°C° 0 mm 1 mps 738 mmHg 55%
02:00 +28°C° 0 mm 1 mps 738 mmHg 57%
03:00 +27°C° 0 mm 1 mps 737 mmHg 58%
04:00 +27°C° 0 mm 1 mps 737 mmHg 60%
05:00 +27°C° 0 mm 1 mps 737 mmHg 60%
06:00 +27°C° 0 mm 1 mps 738 mmHg 59%
07:00 +28°C° 0 mm 1 mps 738 mmHg 59%
08:00 +30°C° 0 mm 2 mps 738 mmHg 53%
09:00 +31°C° 0 mm 2 mps 738 mmHg 48%
10:00 +34°C° 0 mm 3 mps 738 mmHg 43%
11:00 +36°C° 0 mm 3 mps 737 mmHg 40%
12:00 +37°C° 0 mm 4 mps 737 mmHg 36%
13:00 +38°C° 0 mm 4 mps 736 mmHg 33%
14:00 +40°C° 0 mm 4 mps 735 mmHg 32%
15:00 +39°C° 0 mm 3 mps 735 mmHg 32%
16:00 +39°C° 0 mm 3 mps 734 mmHg 31%
17:00 +37°C° 0 mm 3 mps 735 mmHg 36%
18:00 +35°C° 0 mm 2 mps 735 mmHg 40%
19:00 +32°C° 0 mm 2 mps 736 mmHg 45%
20:00 +32°C° 0 mm 2 mps 736 mmHg 47%
21:00 +31°C° 0 mm 1 mps 737 mmHg 48%
22:00 +30°C° 0 mm 1 mps 738 mmHg 49%
23:00 +29°C° 0 mm 1 mps 737 mmHg 52%

11 August, Tuesday

Time Temperature Precipitation Wind Pressure Humidity
00:00 +29°C° 0 mm 1 mps 737 mmHg 54%
01:00 +26°C° 0 mm 0 mps 737 mmHg 57%
02:00 +25°C° 0 mm 0 mps 737 mmHg 60%
03:00 +25°C° 0 mm 0 mps 736 mmHg 62%
04:00 +24°C° 0 mm 0 mps 736 mmHg 64%
05:00 +25°C° 0 mm 0 mps 736 mmHg 64%
06:00 +25°C° 0 mm 0 mps 737 mmHg 63%
07:00 +28°C° 0 mm 1 mps 737 mmHg 63%
08:00 +30°C° 0 mm 1 mps 737 mmHg 55%
09:00 +32°C° 0 mm 2 mps 737 mmHg 48%
10:00 +35°C° 0 mm 2 mps 737 mmHg 41%
11:00 +36°C° 0 mm 3 mps 736 mmHg 38%
12:00 +38°C° 0 mm 4 mps 735 mmHg 34%
13:00 +40°C° 0 mm 4 mps 735 mmHg 31%
14:00 +40°C° 0 mm 4 mps 734 mmHg 30%
15:00 +39°C° 0 mm 3 mps 733 mmHg 29%
16:00 +40°C° 0 mm 3 mps 733 mmHg 29%
17:00 +38°C° 0 mm 2 mps 733 mmHg 34%
18:00 +36°C° 0 mm 2 mps 734 mmHg 39%
19:00 +32°C° 0 mm 2 mps 735 mmHg 44%
20:00 +32°C° 0 mm 1 mps 736 mmHg 46%
21:00 +31°C° 0 mm 1 mps 736 mmHg 47%
22:00 +31°C° 0 mm 1 mps 737 mmHg 49%
23:00 +30°C° 0.3 mm 1 mps 737 mmHg 54%

12 August, Wednesday

Time Temperature Precipitation Wind Pressure Humidity
00:00 +29°C° 0.3 mm 1 mps 737 mmHg 59%
01:00 +27°C° 0.3 mm 0 mps 736 mmHg 64%
02:00 +26°C° 0.5 mm 0 mps 736 mmHg 70%
03:00 +27°C° 0.5 mm 1 mps 736 mmHg 75%
04:00 +26°C° 0.5 mm 1 mps 736 mmHg 80%
05:00 +25°C° 0.1 mm 0 mps 736 mmHg 78%
06:00 +25°C° 0.1 mm 0 mps 737 mmHg 76%
07:00 +26°C° 0.1 mm 0 mps 737 mmHg 74%
08:00 +30°C° 0 mm 1 mps 737 mmHg 67%
09:00 +31°C° 0 mm 2 mps 737 mmHg 59%
10:00 +34°C° 0 mm 2 mps 737 mmHg 51%
11:00 +36°C° 0 mm 3 mps 736 mmHg 46%
12:00 +37°C° 0 mm 3 mps 735 mmHg 41%
13:00 +40°C° 0 mm 4 mps 734 mmHg 36%
14:00 +39°C° 0 mm 3 mps 733 mmHg 35%
15:00 +39°C° 0 mm 3 mps 733 mmHg 34%
16:00 +39°C° 0 mm 3 mps 732 mmHg 32%
17:00 +37°C° 0.1 mm 2 mps 733 mmHg 37%
18:00 +36°C° 0.1 mm 2 mps 734 mmHg 42%
19:00 +33°C° 0.1 mm 1 mps 735 mmHg 47%
20:00 +32°C° 0.1 mm 1 mps 735 mmHg 50%
21:00 +31°C° 0.1 mm 1 mps 736 mmHg 53%
22:00 +30°C° 0.1 mm 1 mps 736 mmHg 55%
23:00 +29°C° 1.1 mm 1 mps 736 mmHg 64%

13 August, Thursday

Time Temperature Precipitation Wind Pressure Humidity
00:00 +28°C° 1.1 mm 1 mps 736 mmHg 72%
01:00 +27°C° 1.1 mm 1 mps 735 mmHg 80%
02:00 +27°C° 1.2 mm 1 mps 735 mmHg 82%
03:00 +27°C° 1.2 mm 1 mps 735 mmHg 84%
04:00 +27°C° 1.2 mm 1 mps 735 mmHg 86%
05:00 +25°C° 0.8 mm 0 mps 736 mmHg 85%
06:00 +25°C° 0.8 mm 0 mps 736 mmHg 83%
07:00 +25°C° 0.8 mm 0 mps 737 mmHg 81%
08:00 +29°C° 0.4 mm 1 mps 737 mmHg 76%
09:00 +30°C° 0.4 mm 1 mps 737 mmHg 70%
10:00 +31°C° 0.4 mm 2 mps 737 mmHg 64%
11:00 +32°C° 0 mm 2 mps 736 mmHg 59%
12:00 +35°C° 0 mm 2 mps 735 mmHg 54%
13:00 +36°C° 0 mm 2 mps 734 mmHg 48%
14:00 +36°C° 0.1 mm 2 mps 734 mmHg 47%
15:00 +37°C° 0.1 mm 2 mps 733 mmHg 45%
16:00 +37°C° 0.1 mm 2 mps 733 mmHg 44%
17:00 +35°C° 0.2 mm 1 mps 733 mmHg 49%
18:00 +33°C° 0.2 mm 1 mps 734 mmHg 55%
19:00 +32°C° 0.2 mm 1 mps 735 mmHg 60%
20:00 +30°C° 1.8 mm 1 mps 735 mmHg 67%
21:00 +29°C° 1.8 mm 1 mps 736 mmHg 73%
22:00 +28°C° 1.8 mm 1 mps 736 mmHg 80%
23:00 +28°C° 1.7 mm 1 mps 736 mmHg 82%
Show more